Location: Alsip
(41.6689°N, 87.7387°W)
Time: 15:14:13
(UTC+00:00)

SPOT 1/Viking Rocket - Pass Details

Date: 14 July 2020
Orbit: 778 x 793 km, 98.5° (Epoch: 13 August)

Event Time Altitude Azimuth Distance (km) Brightness Sun altitude
Exits shadow 03:26:28 23° 181° (S) 1,594 4.7 -17.8°
Maximum altitude 03:29:37 66° 258° (WSW) 857 3.8 -18.1°
Drops below altitude 10° 03:34:47 10° 341° (NNW) 2,354 7.2 -18.7°
Sets 03:37:09 0° 344° (NNW) 3,289 8.1 -18.9°
